Time,TemperatureF,DewpointF,PressureIn,WindDirection,WindDirectionDegrees,WindSpeedMPH,WindSpeedGustMPH,Humidity,HourlyPrecipIn,Conditions,Clouds,dailyrainin,SolarRadiationWatts/m^2,SoftwareType,DateUTC
2013-04-26 00:01:00,51.0,27.0,-100.00,NW,322,2.0,9.0,39,0.00,,,0.00,1.000000,,2013-04-26 06:01:00,
2013-04-26 00:22:00,51.0,27.0,-100.00,NW,322,2.0,9.0,39,0.00,,,0.00,1.000000,,2013-04-26 06:22:00,
2013-04-26 00:32:00,51.0,27.0,-100.00,NW,322,2.0,9.0,39,0.00,,,0.00,1.000000,,2013-04-26 06:32:00,
2013-04-26 00:42:00,51.0,27.0,-100.00,NW,322,2.0,9.0,39,0.00,,,0.00,1.000000,,2013-04-26 06:42:00,
2013-04-26 00:52:00,51.0,27.0,-100.00,NW,322,2.0,9.0,39,0.00,,,0.00,1.000000,,2013-04-26 06:52:00,
2013-04-26 01:01:00,45.0,24.0,-100.00,SW,218,2.0,5.0,44,0.00,,,0.00,1.000000,,2013-04-26 07:01:00,
2013-04-26 01:32:00,45.0,24.0,-100.00,SW,218,2.0,5.0,44,0.00,,,0.00,1.000000,,2013-04-26 07:32:00,
2013-04-26 01:42:00,45.0,24.0,-100.00,SW,218,2.0,5.0,44,0.00,,,0.00,1.000000,,2013-04-26 07:42:00,
2013-04-26 01:52:00,45.0,24.0,-100.00,SW,218,2.0,5.0,44,0.00,,,0.00,1.000000,,2013-04-26 07:52:00,
2013-04-26 02:01:00,39.0,29.0,-100.00,SSW,209,2.0,5.0,66,0.00,,,0.00,1.000000,,2013-04-26 08:01:00,
2013-04-26 02:32:00,39.0,29.0,-100.00,SSW,209,2.0,5.0,66,0.00,,,0.00,1.000000,,2013-04-26 08:32:00,
2013-04-26 02:42:00,39.0,29.0,-100.00,SSW,209,2.0,5.0,66,0.00,,,0.00,1.000000,,2013-04-26 08:42:00,
2013-04-26 02:52:00,39.0,29.0,-100.00,SSW,209,2.0,5.0,66,0.00,,,0.00,1.000000,,2013-04-26 08:52:00,
2013-04-26 03:01:00,38.0,29.0,-100.00,SSW,209,2.0,4.0,71,0.00,,,-99.99,1.000000,,2013-04-26 09:01:00,
2013-04-26 03:22:00,38.0,29.0,-100.00,SSW,209,2.0,4.0,71,0.00,,,-99.99,1.000000,,2013-04-26 09:22:00,
2013-04-26 03:33:00,38.0,29.0,-100.00,SSW,209,2.0,4.0,71,0.00,,,-99.99,1.000000,,2013-04-26 09:33:00,
2013-04-26 03:43:00,38.0,29.0,-100.00,SSW,209,2.0,4.0,71,0.00,,,-99.99,1.000000,,2013-04-26 09:43:00,
2013-04-26 03:53:00,38.0,29.0,-100.00,SSW,209,2.0,4.0,71,0.00,,,-99.99,1.000000,,2013-04-26 09:53:00,
2013-04-26 04:01:00,37.0,30.0,-100.00,SW,220,2.0,4.0,75,0.00,,,0.00,1.000000,,2013-04-26 10:01:00,
2013-04-26 04:33:00,37.0,30.0,-100.00,SW,220,2.0,4.0,75,0.00,,,0.00,1.000000,,2013-04-26 10:33:00,
2013-04-26 04:42:00,37.0,30.0,-100.00,SW,220,2.0,4.0,75,0.00,,,0.00,1.000000,,2013-04-26 10:42:00,
2013-04-26 04:52:00,37.0,30.0,-100.00,SW,220,2.0,4.0,75,0.00,,,0.00,1.000000,,2013-04-26 10:52:00,
2013-04-26 05:01:00,36.0,29.0,-100.00,SW,226,2.0,3.0,75,0.00,,,0.00,1.000000,,2013-04-26 11:01:00,
2013-04-26 05:22:00,36.0,29.0,-100.00,SW,226,2.0,3.0,75,0.00,,,0.00,1.000000,,2013-04-26 11:22:00,
2013-04-26 05:32:00,36.0,29.0,-100.00,SW,226,2.0,3.0,75,0.00,,,0.00,1.000000,,2013-04-26 11:32:00,
2013-04-26 05:42:00,36.0,29.0,-100.00,SW,226,2.0,3.0,75,0.00,,,0.00,1.000000,,2013-04-26 11:42:00,
2013-04-26 05:52:00,36.0,29.0,-100.00,SW,226,2.0,3.0,75,0.00,,,0.00,1.000000,,2013-04-26 11:52:00,
2013-04-26 06:01:00,33.0,28.0,-100.00,SSW,210,2.0,4.0,83,0.00,,,0.00,1.000000,,2013-04-26 12:01:00,
2013-04-26 06:32:00,33.0,28.0,-100.00,SSW,210,2.0,4.0,83,0.00,,,0.00,1.000000,,2013-04-26 12:32:00,
2013-04-26 06:42:00,33.0,28.0,-100.00,SSW,210,2.0,4.0,83,0.00,,,0.00,1.000000,,2013-04-26 12:42:00,
2013-04-26 06:52:00,33.0,28.0,-100.00,SSW,210,2.0,4.0,83,0.00,,,0.00,1.000000,,2013-04-26 12:52:00,
2013-04-26 07:01:00,34.0,30.0,-100.00,SW,232,1.0,4.0,86,0.00,,,0.00,8.000000,,2013-04-26 13:01:00,
2013-04-26 07:32:00,34.0,30.0,-100.00,SW,232,1.0,4.0,86,0.00,,,0.00,8.000000,,2013-04-26 13:32:00,
2013-04-26 07:42:00,34.0,30.0,-100.00,SW,232,1.0,4.0,86,0.00,,,0.00,8.000000,,2013-04-26 13:42:00,
2013-04-26 07:52:00,34.0,30.0,-100.00,SW,232,1.0,4.0,86,0.00,,,0.00,8.000000,,2013-04-26 13:52:00,
2013-04-26 08:01:00,40.0,35.0,-100.00,SE,145,2.0,7.0,82,0.00,,,0.00,92.000000,,2013-04-26 14:01:00,
2013-04-26 08:32:00,40.0,35.0,-100.00,SE,145,2.0,7.0,82,0.00,,,0.00,92.000000,,2013-04-26 14:32:00,
2013-04-26 08:42:00,40.0,35.0,-100.00,SE,145,2.0,7.0,82,0.00,,,0.00,92.000000,,2013-04-26 14:42:00,
2013-04-26 08:52:00,40.0,35.0,-100.00,SE,145,2.0,7.0,82,0.00,,,0.00,92.000000,,2013-04-26 14:52:00,
2013-04-26 09:01:00,48.0,30.0,-100.00,SSE,148,5.0,9.0,50,0.00,,,0.00,270.000000,,2013-04-26 15:01:00,
2013-04-26 09:33:00,48.0,30.0,-100.00,SSE,148,5.0,9.0,50,0.00,,,0.00,270.000000,,2013-04-26 15:33:00,
2013-04-26 09:43:00,48.0,30.0,-100.00,SSE,148,5.0,9.0,50,0.00,,,0.00,270.000000,,2013-04-26 15:43:00,
2013-04-26 09:53:00,48.0,30.0,-100.00,SSE,148,5.0,9.0,50,0.00,,,0.00,270.000000,,2013-04-26 15:53:00,
2013-04-26 10:01:00,54.0,33.0,-100.00,SE,130,4.0,10.0,45,0.00,,,0.00,438.000000,,2013-04-26 16:01:00,
2013-04-26 10:33:00,54.0,33.0,-100.00,SE,130,4.0,10.0,45,0.00,,,0.00,438.000000,,2013-04-26 16:33:00,
2013-04-26 10:42:00,54.0,33.0,-100.00,SE,130,4.0,10.0,45,0.00,,,0.00,438.000000,,2013-04-26 16:42:00,
2013-04-26 10:52:00,54.0,33.0,-100.00,SE,130,4.0,10.0,45,0.00,,,0.00,438.000000,,2013-04-26 16:52:00,
2013-04-26 11:01:00,59.0,33.0,-100.00,South,189,6.0,15.0,37,0.00,,,0.00,568.000000,,2013-04-26 17:01:00,
2013-04-26 11:32:00,59.0,33.0,-100.00,South,189,6.0,15.0,37,0.00,,,0.00,568.000000,,2013-04-26 17:32:00,
2013-04-26 11:42:00,59.0,33.0,-100.00,South,189,6.0,15.0,37,0.00,,,0.00,568.000000,,2013-04-26 17:42:00,
2013-04-26 11:52:00,59.0,33.0,-100.00,South,189,6.0,15.0,37,0.00,,,0.00,568.000000,,2013-04-26 17:52:00,
2013-04-26 12:01:00,63.0,33.0,-100.00,South,169,6.0,13.0,32,0.00,,,0.00,693.000000,,2013-04-26 18:01:00,
2013-04-26 12:22:00,63.0,33.0,-100.00,South,169,6.0,13.0,32,0.00,,,0.00,693.000000,,2013-04-26 18:22:00,
2013-04-26 12:33:00,63.0,33.0,-100.00,South,169,6.0,13.0,32,0.00,,,0.00,693.000000,,2013-04-26 18:33:00,
2013-04-26 12:42:00,63.0,33.0,-100.00,South,169,6.0,13.0,32,0.00,,,0.00,693.000000,,2013-04-26 18:42:00,
2013-04-26 12:52:00,63.0,33.0,-100.00,South,169,6.0,13.0,32,0.00,,,0.00,693.000000,,2013-04-26 18:52:00,
2013-04-26 13:01:00,68.0,34.0,-100.00,North,359,6.0,11.0,28,0.00,,,0.00,787.000000,,2013-04-26 19:01:00,
2013-04-26 13:22:00,68.0,34.0,-100.00,North,359,6.0,11.0,28,0.00,,,0.00,787.000000,,2013-04-26 19:22:00,
2013-04-26 13:32:00,68.0,34.0,-100.00,North,359,6.0,11.0,28,0.00,,,0.00,787.000000,,2013-04-26 19:32:00,
2013-04-26 13:42:00,68.0,34.0,-100.00,North,359,6.0,11.0,28,0.00,,,0.00,787.000000,,2013-04-26 19:42:00,
2013-04-26 13:52:00,68.0,34.0,-100.00,North,359,6.0,11.0,28,0.00,,,0.00,787.000000,,2013-04-26 19:52:00,
2013-04-26 14:01:00,71.0,35.0,-100.00,South,175,5.0,12.0,27,0.00,,,0.00,865.000000,,2013-04-26 20:01:00,
2013-04-26 14:32:00,71.0,35.0,-100.00,South,175,5.0,12.0,27,0.00,,,0.00,865.000000,,2013-04-26 20:32:00,
2013-04-26 14:42:00,71.0,35.0,-100.00,South,175,5.0,12.0,27,0.00,,,0.00,865.000000,,2013-04-26 20:42:00,
2013-04-26 14:52:00,71.0,35.0,-100.00,South,175,5.0,12.0,27,0.00,,,0.00,865.000000,,2013-04-26 20:52:00,
2013-04-26 15:01:00,73.0,31.0,-100.00,North,0,6.0,15.0,21,0.00,,,0.00,842.000000,,2013-04-26 21:01:00,
2013-04-26 15:22:00,73.0,31.0,-100.00,North,0,6.0,15.0,21,0.00,,,0.00,842.000000,,2013-04-26 21:22:00,
2013-04-26 15:33:00,73.0,31.0,-100.00,North,0,6.0,15.0,21,0.00,,,0.00,842.000000,,2013-04-26 21:33:00,
2013-04-26 15:42:00,73.0,31.0,-100.00,North,0,6.0,15.0,21,0.00,,,0.00,842.000000,,2013-04-26 21:42:00,
2013-04-26 15:53:00,73.0,31.0,-100.00,North,0,6.0,15.0,21,0.00,,,0.00,842.000000,,2013-04-26 21:53:00,
2013-04-26 16:01:00,72.0,31.0,-100.00,North,1,5.0,14.0,22,0.00,,,0.00,765.000000,,2013-04-26 22:01:00,
2013-04-26 16:23:00,72.0,31.0,-100.00,North,1,5.0,14.0,22,0.00,,,0.00,765.000000,,2013-04-26 22:23:00,
2013-04-26 16:33:00,72.0,31.0,-100.00,North,1,5.0,14.0,22,0.00,,,0.00,765.000000,,2013-04-26 22:33:00,
2013-04-26 16:42:00,72.0,31.0,-100.00,North,1,5.0,14.0,22,0.00,,,0.00,765.000000,,2013-04-26 22:42:00,
2013-04-26 16:52:00,72.0,31.0,-100.00,North,1,5.0,14.0,22,0.00,,,0.00,765.000000,,2013-04-26 22:52:00,
2013-04-26 17:01:00,72.0,31.0,-100.00,NE,37,6.0,14.0,22,0.00,,,0.00,650.000000,,2013-04-26 23:01:00,
2013-04-26 17:22:00,72.0,31.0,-100.00,NE,37,6.0,14.0,22,0.00,,,0.00,650.000000,,2013-04-26 23:22:00,
2013-04-26 17:32:00,72.0,31.0,-100.00,NE,37,6.0,14.0,22,0.00,,,0.00,650.000000,,2013-04-26 23:32:00,
2013-04-26 17:42:00,72.0,31.0,-100.00,NE,37,6.0,14.0,22,0.00,,,0.00,650.000000,,2013-04-26 23:42:00,
2013-04-26 17:52:00,72.0,31.0,-100.00,NE,37,6.0,14.0,22,0.00,,,0.00,650.000000,,2013-04-26 23:52:00,
2013-04-26 18:01:00,72.0,31.0,-100.00,WNW,302,3.0,14.0,22,0.00,,,0.00,493.000000,,2013-04-27 00:01:00,
2013-04-26 18:32:00,72.0,31.0,-100.00,WNW,302,3.0,14.0,22,0.00,,,0.00,493.000000,,2013-04-27 00:32:00,
2013-04-26 18:42:00,72.0,31.0,-100.00,WNW,302,3.0,14.0,22,0.00,,,0.00,493.000000,,2013-04-27 00:42:00,
2013-04-26 18:52:00,72.0,31.0,-100.00,WNW,302,3.0,14.0,22,0.00,,,0.00,493.000000,,2013-04-27 00:52:00,
2013-04-26 19:01:00,65.0,28.0,-100.00,SSW,213,3.0,11.0,25,0.00,,,0.00,198.000000,,2013-04-27 01:01:00,
2013-04-26 19:21:00,65.0,28.0,-100.00,SSW,213,3.0,11.0,25,0.00,,,0.00,198.000000,,2013-04-27 01:21:00,
2013-04-26 19:32:00,65.0,28.0,-100.00,SSW,213,3.0,11.0,25,0.00,,,0.00,198.000000,,2013-04-27 01:32:00,
2013-04-26 19:42:00,65.0,28.0,-100.00,SSW,213,3.0,11.0,25,0.00,,,0.00,198.000000,,2013-04-27 01:42:00,
2013-04-26 19:52:00,65.0,28.0,-100.00,SSW,213,3.0,11.0,25,0.00,,,0.00,198.000000,,2013-04-27 01:52:00,
2013-04-26 20:01:00,61.0,32.0,-100.00,NW,315,3.0,7.0,33,0.00,,,0.00,51.000000,,2013-04-27 02:01:00,
2013-04-26 20:32:00,61.0,32.0,-100.00,NW,315,3.0,7.0,33,0.00,,,0.00,51.000000,,2013-04-27 02:32:00,
2013-04-26 20:42:00,61.0,32.0,-100.00,NW,315,3.0,7.0,33,0.00,,,0.00,51.000000,,2013-04-27 02:42:00,
2013-04-26 20:52:00,61.0,32.0,-100.00,NW,315,3.0,7.0,33,0.00,,,0.00,51.000000,,2013-04-27 02:52:00,
2013-04-26 21:01:00,58.0,31.0,-100.00,West,265,2.0,8.0,35,0.00,,,0.00,10.000000,,2013-04-27 03:01:00,
2013-04-26 21:33:00,58.0,31.0,-100.00,West,265,2.0,8.0,35,0.00,,,0.00,10.000000,,2013-04-27 03:33:00,
2013-04-26 21:43:00,58.0,31.0,-100.00,West,265,2.0,8.0,35,0.00,,,0.00,10.000000,,2013-04-27 03:43:00,
2013-04-26 21:53:00,58.0,31.0,-100.00,West,265,2.0,8.0,35,0.00,,,0.00,10.000000,,2013-04-27 03:53:00,
2013-04-26 22:01:00,51.0,33.0,-100.00,SW,215,3.0,5.0,50,0.00,,,0.00,1.000000,,2013-04-27 04:01:00,
2013-04-26 22:23:00,51.0,33.0,-100.00,SW,215,3.0,5.0,50,0.00,,,0.00,1.000000,,2013-04-27 04:23:00,
2013-04-26 22:33:00,51.0,33.0,-100.00,SW,215,3.0,5.0,50,0.00,,,0.00,1.000000,,2013-04-27 04:33:00,
2013-04-26 23:01:00,48.0,33.0,-100.00,SSW,209,3.0,5.0,55,0.00,,,0.00,1.000000,,2013-04-27 05:01:00,
2013-04-26 23:22:00,48.0,33.0,-100.00,SSW,209,3.0,5.0,55,0.00,,,0.00,1.000000,,2013-04-27 05:22:00,
2013-04-26 23:32:00,48.0,33.0,-100.00,SSW,209,3.0,5.0,55,0.00,,,0.00,1.000000,,2013-04-27 05:32:00,
2013-04-26 23:42:00,48.0,33.0,-100.00,SSW,209,3.0,5.0,55,0.00,,,0.00,1.000000,,2013-04-27 05:42:00,
2013-04-26 23:52:00,48.0,33.0,-100.00,SSW,209,3.0,5.0,55,0.00,,,0.00,1.000000,,2013-04-27 05:52:00,